Regional Weather Roundup
Issued by NWS Portland, ME

Home | Current Version | Previous Version | Text Only | Print | Product List | Glossary On
Versions: 1 2 3 4 5 6 7 8 9 10 11 12 13 14 15 16 17 18 19 20 21 22 23 24 25 26 27 28 29 30 31 32 33 34 35 36 37 38 39 40 41 42 43 44 45 46 47 48 49 50
000
ASUS41 KGYX 300910
RWRGYX
WEATHER ROUNDUP FOR MAINE AND NEW HAMPSHIRE
NATIONAL WEATHER SERVICE GRAY ME
500 AM EDT THU MAR 30 2017

MEZ002-005-006-010-012-015-018-020-021-024-026-027-029-301000-
MAINE

CITY           SKY/WX    TMP DP  RH WIND       PRES   REMARKS
PORTLAND       CLEAR     33  21  61 NW8       30.13R
SANFORD        MOCLDY    34  19  54 N10G17    30.14R
BAR HARBOR     CLEAR     32  25  75 N8        30.06R
WISCASSET      PTCLDY    32  20  61 VRB5      30.12R
ROCKLAND       CLEAR     32  23  69 NW8G17    30.08R
FRYEBURG       PTCLDY    32  18  56 N12G22    30.14R
LEWISTONAUBURN PTCLDY    32  19  58 NW10      30.13R
AUGUSTA        CLEAR     31  17  56 NW15      30.10R
WATERVILLE     CLEAR     31  21  66 NW10      30.07R
BANGOR         PTCLDY    30  23  75 NW14      30.08R WCI  19
GREENVILLE       N/A     26  22  84 NW12      30.02S WCI  16
MILLINOCKET    MOCLDY    30  23  75 N8        30.07S
HOULTON        MOCLDY    26  21  81 N15       30.03S WCI  14
PRESQUE ISLE   PTCLDY    24  22  91 N13       30.07S WCI  12
FRENCHVILLE    CLOUDY    25  21  85 N10       30.05S WCI  15
CARIBOU        PTCLDY    21  17  84 N6        30.06R
$$

NHZ002-005-008-009-011-012-014-301000-
NEW HAMPSHIRE

CITY           SKY/WX    TMP DP  RH WIND       PRES   REMARKS
PORTSMOUTH     PTCLDY    31  20  62 NW9       30.14R
ROCHESTER      PTCLDY    31  18  58 W3        30.13R
NASHUA         CLEAR     35  19  52 NW10      30.17R
MANCHESTER     MOCLDY    36  16  44 NW10G18   30.16R
CONCORD        PTCLDY    33  19  56 NW7       30.16R
LACONIA        PTCLDY    32  18  56 W7        30.15R
PLYMOUTH       CLOUDY    33  20  57 NW7       30.16S
BERLIN         CLOUDY    30  16  56 NW7       30.13R
WHITEFIELD     CLOUDY    29  15  56 NW7       30.15R
JAFFREY        CLEAR     32  15  49 VRB6      30.14R
KEENE          PTCLDY    33  18  53 N10       30.18R
LEBANON        CLOUDY    34  18  52 N6        30.18R
MT WASHINGTON  FOG        9  -2  61 NW35G47     N/A  VSB 1   WCI -15
$$

VTZ005-007-008-301000-
VERMONT

CITY           SKY/WX    TMP DP  RH WIND       PRES   REMARKS
ST JOHNSBURY     N/A     32  19  58 MISG      30.17R
MONTPELIER     CLOUDY    30  19  63 N9        30.21R
BURLINGTON     CLOUDY    34  22  61 N10       30.24R
$$

MAZ007-012-024-CTZ003-RIZ002-NYZ038-NYZ072-301000-
SOUTHERN NEW ENGLAND AND NY

CITY           SKY/WX    TMP DP  RH WIND       PRES   REMARKS
BOSTON         PTCLDY    35  22  58 NW13      30.16R
WORCESTER      PTCLDY    30  20  66 NW6       30.13R
NANTUCKET      CLEAR     37  28  70 N13       30.11R
PROVIDENCE     CLEAR     35  21  56 NW7       30.17R
HARTFORD       PTCLDY    31  21  66 NW6       30.20R
ALBANY         PTCLDY    30  20  66 NW6       30.24S
NEW YORK CITY  CLEAR     42  23  46 N7        30.23R
$$

ANZ081-ANZ082-ANZ150-NHZ014-MEZ023>029-301000-
COASTAL MARINE OBSERVATIONS

STATION/POSITION TIME  TEMP    WIND        PRES    WAVE
                       AIR SEA DIR/SP/G            HT/PER
                 (UTC) (F)     (DEG/KT/KT) (MB)    (FT/S)
MOUNT DESERT ROC 0900   34                 1016.7R
MATINICUS ROCK   0800   35     340/ 23/ 27 1016.9F
ISLE OF SHOALS   0800   37     310/ 12/ 13 1019.8F
JEFFREYS LEDGE   0806      40                N/A     5/ 5
CASHES LEDGE BUO 0750   36 39              1017.1    6/ 6
GEORGES BANK BUO 0750   38 40              1012.6   11/ 8
$$

.............KEY..............
   WCI - WIND CHILL
   TC  - TEMPERATURE IN CELSIUS
   VSB - VISIBILITY IN MILES
   HX  - HEAT INDEX
   FAIR- INDICATES FEW OR NO CLOUDS BELOW 12,000 FT, WITH NO
         SIGNIFICANT WEATHER AND/OR OBSTRUCTIONS TO VISIBILITY.






USA.gov is the U.S. government's official web portal to all federal, state and local government web resources and services.